COSMOS 894 DEB, 45506

Orbit data source: Space-Track

COSMOS 894 DEB, 45506 is space debris in LEO originally from a launch on Mon, 21 Feb 1977 UTC launched from the Plesetsk Missile And Space Complex (PKMTR). Debris objects in space refer to the collection of defunct objects orbiting the Earth. Examples of debris include non-operational satellites, rocket bodies, and fragments generated from explosions, collisions, or faulty payload assembly.

Loading next visibility...
Identifier
45506, 1977-013C
Orbit
LEO
Country
Flag of CISCIS
Related business
Manufacturer
Unknown
Mission
Spacecraft
Bus & Motor
Unknown
Mass
Unknown
Launch date (UTC)
1977-02-21 (49 years ago)
Launch vehicle
Unknown
Launch site
Plesetsk Missile And Space Complex (PKMTR)
Object type
Payload
Rocket body
Debris
Shape & HBR
Unknown shape, 0.1 m
Radar Cross Section
Small (<0.1 m²)

Expand to show TLE details & history
Last TLE update: 21 hours ago

TLE from 21 hours ago
0 COSMOS 894 DEB
1 45506U 77013C   25307.79394974  .00000939  00000-0  89943-3 0  9994
2 45506  82.9408 252.4520 0030310  74.7242 285.7264 13.79148007581936
Epoch: 2025-11-03T19:03Z
TLE epoch observation values (Epoch: 2025-11-03T19:03:17.257Z)
Latitude
0.00002°
Longitude
-76.66012°
Altitude
963.843 km
Speed
7.373 km/s
True Right ascension
16h 49m 48s
True Declination
0° 00' 00"
Sunlit
Object was in daylight at epoch
Visualization orbit readout
Latitude
Unknown
Longitude
Unknown
Altitude
Unknown
Speed
Unknown
Apparent Right ascension
Unknown
Apparent Declination
Unknown
Sunlit
N/A
Visualization observer readout
Local Sidereal Time
11:35:17
Azimuth
Unknown
Elevation
Unknown
Doppler factor
Unknown
Orbital elements
Apogee altitude
986.307 km
Perigee altitude
941.799 km
Semi-major axis
7,342.19 km
Eccentricity
0.00303
Inclination
82.9408°
RAAN
252.452°
Arg. of periapsis
74.7242°
True anomaly
285.39173°
Mean anomaly
285.7264°
Eccentric anomaly
285.5591°
Mean motion
3.44989 °/min
Orbital period
104.35 mins
BSTAR
0.00089943
Loading maneuver chart data...
Computing Atmospheric mass density...
Loading historical data...
Loading historical data...
Loading historical data...
Loading historical data...
Loading historical data...
Loading historical data...
Loading historical data...
Other satellites on launch #13 in the year 1977 (1977-02-21 UTC)

Documentation

Showing up to 5 results
|